This demonstration page uses our WeatherBlox Daily Observations layout. Learn more.

Left ArrowRight Arrow

Hourly Observations for October 19, 2016

Temp ( °F °C ) Dew Point ( °F °C ) Humidity (%) Winds ( mph kmh ) Pressure ( in mb ) Visibility ( mi km ) Precip ( " mm )
12:15 am 00:15 Mostly Clear 54 12 36 2 51 51 Calm 30.03 1017 10 16 0.00 0.00
12:35 am 00:35 Mostly Clear 52 11 37 3 58 58 E 3 6 30.03 1017 10 16 0.00 0.00
12:55 am 00:55 Partly Cloudy 50 10 37 3 62 62 NE 6 9 30.03 1017 10 16 0.00 0.00
1:15 am 01:15 Mostly Cloudy 50 10 36 2 58 58 NE 3 6 30.03 1017 10 16 0.00 0.00
1:35 am 01:35 Partly Cloudy 50 10 37 3 62 62 NE 3 6 30.03 1017 10 16 0.00 0.00
1:55 am 01:55 Mostly Cloudy 52 11 37 3 58 58 Calm 30.03 1017 10 16 0.00 0.00
2:15 am 02:15 Mostly Cloudy 52 11 37 3 58 58 Calm 30.06 1018 10 16 0.00 0.00
2:35 am 02:35 Mostly Cloudy 52 11 37 3 58 58 Calm 30.06 1018 10 16 0.00 0.00
2:55 am 02:55 Mostly Clear 52 11 37 3 58 58 Calm 30.06 1018 10 16 0.00 0.00
3:15 am 03:15 Mostly Clear 50 10 37 3 62 62 Calm 30.06 1018 10 16 0.00 0.00
3:35 am 03:35 Partly Cloudy 52 11 39 4 62 62 SE 6 9 30.06 1018 10 16 0.00 0.00
3:55 am 03:55 Partly Cloudy 52 11 39 4 62 62 SE 8 13 30.06 1018 10 16 0.00 0.00
4:15 am 04:15 Clear 52 11 39 4 62 62 ESE 6 9 30.06 1018 10 16 0.00 0.00
4:35 am 04:35 Clear 52 11 39 4 62 62 ESE 6 9 30.06 1018 10 16 0.00 0.00
4:55 am 04:55 Partly Cloudy 50 10 39 4 67 67 E 5 7 30.06 1018 10 16 0.00 0.00
5:15 am 05:15 Cloudy 50 10 39 4 67 67 E 3 6 30.06 1018 10 16 0.00 0.00
5:35 am 05:35 Cloudy 52 11 39 4 62 62 ESE 5 7 30.06 1018 10 16 0.00 0.00
5:55 am 05:55 Cloudy 52 11 41 5 67 67 SE 9 15 30.06 1018 10 16 0.00 0.00
6:15 am 06:15 Mostly Cloudy 50 10 39 4 67 67 SE 6 9 30.09 1019 10 16 0.00 0.00
6:35 am 06:35 Mostly Cloudy 52 11 39 4 62 62 Calm 30.09 1019 10 16 0.00 0.00
6:55 am 06:55 Partly Cloudy 52 11 39 4 62 62 Calm 30.09 1019 10 16 0.00 0.00
7:15 am 07:15 Partly Cloudy 52 11 41 5 67 67 N 6 9 30.12 1020 10 16 0.00 0.00
7:35 am 07:35 Partly Cloudy 50 10 39 4 67 67 N 3 6 30.12 1020 10 16 0.00 0.00
7:55 am 07:55 Mostly Cloudy 52 11 41 5 67 67 N 5 7 30.12 1020 10 16 0.00 0.00
8:15 am 08:15 Cloudy 50 10 39 4 67 67 Calm 30.12 1020 10 16 0.00 0.00
8:35 am 08:35 Mostly Cloudy 52 11 41 5 67 67 NNW 5 7 30.12 1020 10 16 0.00 0.00
8:55 am 08:55 Cloudy 52 11 39 4 62 62 NNW 10 17 30.15 1021 8 13 0.00 0.00
9:15 am 09:15 Partly Cloudy 52 11 41 5 67 67 NNW 10 17 30.15 1021 10 16 0.00 0.00
9:35 am 09:35 Sunny 54 12 41 5 63 63 N 8 13 30.15 1021 10 16 0.00 0.00
9:55 am 09:55 Partly Cloudy 55 13 43 6 63 63 N 10 17 30.18 1022 10 16 0.00 0.00
10:15 am 10:15 Mostly Sunny 57 14 43 6 59 59 N 10 17 30.15 1021 10 16 0.00 0.00
10:35 am 10:35 Mostly Sunny 59 15 43 6 55 55 N 12 19 30.15 1021 10 16 0.00 0.00
10:55 am 10:55 Mostly Sunny 61 16 43 6 52 52 NNE 13 20 30.15 1021 10 16 0.00 0.00
11:15 am 11:15 Sunny 61 16 43 6 52 52 N 10 17 30.15 1021 10 16 0.00 0.00
11:35 am 11:35 Mostly Sunny 61 16 43 6 52 52 NNE 12 19 30.15 1021 10 16 0.00 0.00
11:55 am 11:55 Mostly Cloudy 63 17 43 6 49 49 NNE 12 19 30.15 1021 10 16 0.00 0.00
12:15 pm 12:15 Cloudy 63 17 43 6 49 49 N 10 17 30.15 1021 10 16 0.00 0.00
12:35 pm 12:35 Mostly Cloudy 61 16 43 6 52 52 N 12 19 30.15 1021 10 16 0.00 0.00
12:55 pm 12:55 Mostly Sunny 64 18 43 6 46 46 NNE 14 22 30.12 1020 10 16 0.00 0.00
1:15 pm 13:15 Partly Cloudy 64 18 43 6 46 46 N 14 22 30.09 1019 10 16 0.00 0.00
1:35 pm 13:35 Mostly Cloudy 63 17 41 5 45 45 N 12 19 30.15 1021 10 16 0.00 0.00
1:55 pm 13:55 Mostly Cloudy 63 17 41 5 45 45 N 14 22 30.09 1019 10 16 0.00 0.00
2:15 pm 14:15 Partly Cloudy 63 17 41 5 45 45 N 14 22 30.09 1019 10 16 0.00 0.00
2:35 pm 14:35 Partly Cloudy 63 17 41 5 45 45 NNE 16 26 30.09 1019 10 16 0.00 0.00
2:55 pm 14:55 Partly Cloudy 64 18 39 4 40 40 NNE 13 20 30.09 1019 10 16 0.00 0.00
3:15 pm 15:15 Partly Cloudy 64 18 39 4 40 40 N 13 20 30.09 1019 10 16 0.00 0.00
3:35 pm 15:35 Mostly Cloudy 64 18 39 4 40 40 N 15 24 30.09 1019 10 16 0.00 0.00
3:55 pm 15:55 Mostly Cloudy 64 18 39 4 40 40 N 17 28 30.09 1019 10 16 0.00 0.00
4:15 pm 16:15 Mostly Cloudy 64 18 39 4 40 40 NNE 14 22 30.09 1019 10 16 0.00 0.00
4:35 pm 16:35 Mostly Cloudy 63 17 39 4 42 42 NNE 17 28 30.09 1019 10 16 0.00 0.00
4:55 pm 16:55 Cloudy 63 17 39 4 42 42 NE 15 24 30.09 1019 10 16 0.00 0.00
5:15 pm 17:15 Cloudy 61 16 39 4 45 45 NNE 16 26 30.12 1020 10 16 0.00 0.00
5:35 pm 17:35 Cloudy 61 16 41 5 48 48 NE 17 28 30.12 1020 10 16 0.00 0.00
5:55 pm 17:55 Mostly Cloudy 61 16 39 4 45 45 ENE 15 24 30.15 1021 10 16 0.00 0.00
6:15 pm 18:15 Cloudy 59 15 39 4 48 48 NE 15 24 30.15 1021 10 16 0.00 0.00
6:35 pm 18:35 Cloudy 57 14 41 5 55 55 NE 10 17 30.15 1021 10 16 0.00 0.00
6:55 pm 18:55 Cloudy 57 14 41 5 55 55 N 12 19 30.18 1022 10 16 0.00 0.00
7:15 pm 19:15 Cloudy 55 13 39 4 55 55 N 13 20 30.21 1023 10 16 0.00 0.00
7:35 pm 19:35 Cloudy 55 13 39 4 55 55 N 13 20 30.24 1024 10 16 0.00 0.00
7:55 pm 19:55 Cloudy 55 13 41 5 59 59 N 12 19 30.24 1024 10 16 0.00 0.00
8:15 pm 20:15 Cloudy 54 12 43 6 67 67 NE 9 15 30.24 1024 10 16 0.00 0.00
8:35 pm 20:35 Cloudy 52 11 43 6 72 72 NE 7 11 30.24 1024 10 16 0.00 0.00
8:55 pm 20:55 Partly Cloudy 52 11 43 6 72 72 NNE 8 13 30.24 1024 10 16 0.00 0.00
9:15 pm 21:15 Clear 50 10 41 5 71 71 NNE 9 15 30.30 1026 10 16 0.00 0.00
9:35 pm 21:35 Clear 48 9 39 4 71 71 NNE 7 11 30.30 1026 10 16 0.00 0.00
9:55 pm 21:55 Mostly Cloudy 46 8 39 4 76 76 N 7 11 30.30 1026 10 16 0.00 0.00
10:15 pm 22:15 Cloudy 48 9 41 5 76 76 NNE 7 11 30.30 1026 10 16 0.00 0.00
10:35 pm 22:35 Cloudy 48 9 39 4 71 71 N 8 13 30.30 1026 10 16 0.00 0.00
10:55 pm 22:55 Cloudy 48 9 41 5 76 76 NNE 8 13 30.30 1026 10 16 0.00 0.00
11:15 pm 23:15 Cloudy 48 9 41 5 76 76 N 9 15 30.30 1026 10 16 0.00 0.00
11:35 pm 23:35 Cloudy 48 9 41 5 76 76 N 8 13 30.30 1026 10 16 0.00 0.00
11:55 pm 23:55 Cloudy 48 9 41 5 76 76 N 9 15 30.30 1026 10 16 0.00 0.00

Powered by AerisWeather